DAL786 KDCA-KSEA

Flight info

Callsign DAL786
Flight time N/A
Altitude 34000
Route HORTO4 BUFFR Q178 DJB J34 RWF MLS LWT MLP GLASR3
Aircraft A21N/M-SDE2E3FGHIRWXY/LB1

Departure

Time 2026-05-05 21:49
Airport Ronald Reagan Washington National Airport (KDCA)

Arrival

Time N/A
Airport Seattle–Tacoma International Airport (KSEA)
Time Latitude Longitude Altitude Speed Heading
2026-05-05 21:26 38.85203 -77.04044 28 ft 0 kts 292°
2026-05-05 21:38 38.85202 -77.04040 27 ft 3 kts 293°
2026-05-05 21:39 38.85189 -77.04010 27 ft 4 kts 308°
2026-05-05 21:39 38.85170 -77.03987 27 ft 4 kts 330°
2026-05-05 21:39 38.85146 -77.03976 27 ft 4 kts 354°
2026-05-05 21:39 38.85141 -77.03975 27 ft 1 kts 355°
2026-05-05 21:44 38.85149 -77.03976 27 ft 3 kts 355°
2026-05-05 21:44 38.85181 -77.03979 27 ft 7 kts 354°
2026-05-05 21:45 38.85240 -77.03986 27 ft 11 kts 355°
2026-05-05 21:45 38.85317 -77.03990 28 ft 10 kts 19°
2026-05-05 21:45 38.85376 -77.03941 29 ft 11 kts
2026-05-05 21:45 38.85459 -77.03946 31 ft 13 kts 355°
2026-05-05 21:46 38.85551 -77.03957 32 ft 14 kts 354°
2026-05-05 21:46 38.85651 -77.03967 33 ft 15 kts 358°
2026-05-05 21:46 38.85758 -77.03977 33 ft 16 kts 355°
2026-05-05 21:46 38.85871 -77.03988 32 ft 17 kts 355°
2026-05-05 21:47 38.85966 -77.03985 32 ft 12 kts 12°
2026-05-05 21:47 38.86019 -77.03967 31 ft 7 kts 16°
2026-05-05 21:47 38.86069 -77.03941 29 ft 8 kts 32°
2026-05-05 21:47 38.86070 -77.03877 28 ft 9 kts 144°
2026-05-05 21:48 38.86023 -77.03863 29 ft 0 kts 176°
2026-05-05 21:48 38.85991 -77.03860 30 ft 24 kts 176°
2026-05-05 21:48 38.85577 -77.03818 31 ft 94 kts 175°
2026-05-05 21:48 38.84712 -77.03724 146 ft 141 kts 177°
2026-05-05 21:49 38.83744 -77.03622 828 ft 144 kts 180°
2026-05-05 21:49 38.82721 -77.03618 1442 ft 154 kts 186°
2026-05-05 21:49 38.81565 -77.03616 1733 ft 178 kts 181°
2026-05-05 21:49 38.80255 -77.03585 2121 ft 197 kts 182°
2026-05-05 21:50 38.78806 -77.03559 2425 ft 220 kts 184°
2026-05-05 21:50 38.77231 -77.03776 2847 ft 233 kts 200°
2026-05-05 21:50 38.75815 -77.04791 3540 ft 237 kts 222°
2026-05-05 21:50 38.74856 -77.06513 4281 ft 243 kts 245°
2026-05-05 21:51 38.74507 -77.08659 5108 ft 250 kts 261°
2026-05-05 21:51 38.74419 -77.10897 5915 ft 253 kts 262°
2026-05-05 21:51 38.74337 -77.13155 6674 ft 254 kts 262°
2026-05-05 21:51 38.74228 -77.15428 7410 ft 256 kts 262°
2026-05-05 21:52 38.73973 -77.20000 8945 ft 258 kts 263°
2026-05-05 21:52 38.74058 -77.22310 9694 ft 263 kts 278°
2026-05-05 21:52 38.74751 -77.24518 10208 ft 279 kts 298°
2026-05-05 21:53 38.76147 -77.26333 10463 ft 306 kts 321°
2026-05-05 21:53 38.78184 -77.27554 10709 ft 331 kts 333°
2026-05-05 21:53 38.80408 -77.28583 10945 ft 349 kts 335°
2026-05-05 21:53 38.82716 -77.29650 11205 ft 363 kts 334°
2026-05-05 21:54 38.85093 -77.30817 11744 ft 367 kts 332°
2026-05-05 21:54 38.87432 -77.32142 12374 ft 369 kts 330°
2026-05-05 21:54 38.89787 -77.33507 13016 ft 372 kts 330°
2026-05-05 21:54 38.92152 -77.34894 13624 ft 375 kts 330°
2026-05-05 21:55 38.94535 -77.36297 14163 ft 378 kts 330°
2026-05-05 21:55 38.96939 -77.37700 14674 ft 382 kts 331°
2026-05-05 21:55 38.99377 -77.39107 15187 ft 385 kts 331°
2026-05-05 21:55 39.01833 -77.40537 15697 ft 389 kts 330°
2026-05-05 21:56 39.04309 -77.41985 16214 ft 393 kts 330°
2026-05-05 21:56 39.06802 -77.43446 16735 ft 396 kts 330°
2026-05-05 21:56 39.09325 -77.44930 17257 ft 400 kts 330°
2026-05-05 21:56 39.11854 -77.46358 17760 ft 406 kts 335°
2026-05-05 21:57 39.14563 -77.47504 18301 ft 411 kts 338°
2026-05-05 21:57 39.17314 -77.48579 18756 ft 414 kts 338°
2026-05-05 21:57 39.20089 -77.49658 19187 ft 418 kts 338°
2026-05-05 21:57 39.22884 -77.50749 19628 ft 421 kts 338°
2026-05-05 21:58 39.25699 -77.51852 20065 ft 424 kts 338°
2026-05-05 21:58 39.28528 -77.52965 20474 ft 427 kts 338°
2026-05-05 21:58 39.31380 -77.54092 20890 ft 430 kts 338°
2026-05-05 21:58 39.33284 -77.54845 21165 ft 432 kts 338°
2026-05-05 21:59 39.36174 -77.55987 21588 ft 436 kts 338°
2026-05-05 21:59 39.39076 -77.57139 22020 ft 438 kts 338°
2026-05-05 21:59 39.41889 -77.58620 22417 ft 435 kts 327°
2026-05-05 21:59 39.44396 -77.60770 22794 ft 431 kts 315°
2026-05-05 22:00 39.46472 -77.63534 23150 ft 427 kts 303°
2026-05-05 22:00 39.48039 -77.66770 23465 ft 424 kts 291°
2026-05-05 22:00 39.49164 -77.70286 23807 ft 423 kts 287°
2026-05-05 22:00 39.50205 -77.73852 24182 ft 424 kts 287°